This demonstration page uses our WeatherBlox Daily Observations layout. Learn more.

Left ArrowRight Arrow

30.21309, -93.2044

Hourly Observations for December 8, 2022

Temp ( °F °C ) Dew Point ( °F °C ) Humidity (%) Winds ( mph kmh ) Pressure ( in mb ) Visibility ( mi km ) Precip ( " mm )
12:15 am 00:15 Cloudy with Fog 69 20.3 67 19.6 96 96 SSE 5 7 30.24 1024 0 0 0.00 0.00
12:35 am 00:35 Cloudy with Fog 67 19.7 66 19.1 96 96 S 5 7 30.23 1024 0 0 0.00 0.00
12:55 am 00:55 Cloudy with Fog 67 19.3 65 18.6 96 96 Calm 30.23 1024 0 0 0.00 0.00
1:15 am 01:15 Cloudy with Fog 66 18.8 65 18.2 96 96 S 3 6 30.23 1024 0 0 0.00 0.00
1:35 am 01:35 Cloudy with Fog 65 18.6 64 17.9 96 96 S 3 6 30.23 1024 0 0 0.00 0.00
1:55 am 01:55 Cloudy with Fog 65 18.1 64 17.5 96 96 S 3 6 30.22 1023 0 0 0.00 0.00
2:15 am 02:15 Cloudy with Fog 65 18.1 64 17.5 96 96 S 3 6 30.23 1024 1 1 0.00 0.00
2:35 am 02:35 Cloudy with Fog 65 18.1 64 17.5 96 96 Calm 30.23 1024 1 1 0.00 0.00
2:55 am 02:55 Cloudy with Fog 65 18.4 64 17.7 96 96 Calm 30.23 1024 1 1 0.00 0.00
3:15 am 03:15 Cloudy with Fog 65 18.2 64 17.6 96 96 SSE 3 6 30.22 1023 0 0 0.00 0.00
3:35 am 03:35 Cloudy with Fog 64 17.6 62 16.9 96 96 SSE 3 6 30.22 1023 0 0 0.00 0.00
3:55 am 03:55 Cloudy with Fog 65 18.1 64 17.5 96 96 Calm 30.22 1023 0 0 0.00 0.00
4:15 am 04:15 Cloudy with Fog 65 18.1 64 17.5 96 96 SSE 3 6 30.21 1023 0 0 0.00 0.00
4:35 am 04:35 Cloudy with Fog 65 18.2 64 17.5 96 96 Calm 30.21 1023 0 0 0.00 0.00
4:55 am 04:55 Cloudy with Fog 65 18.3 64 17.7 96 96 Calm 30.21 1023 0 0 0.00 0.00
5:15 am 05:15 Cloudy with Fog 65 18.4 64 17.8 96 96 Calm 30.21 1023 0 0 0.00 0.00
5:35 am 05:35 Cloudy with Fog 65 18.6 64 18 96 96 Calm 30.21 1023 0 0 0.00 0.00
6:00 am 06:00 Mostly Clear with Fog 66 19 64 18 94 94 Calm 30.21 1023 0 0 0.00 0.00
6:51 am 06:51 Mostly Clear with Fog 66 19 64 18 94 94 Calm 30.22 1023 0 0 0.00 0.00
7:50 am 07:50 Partly Cloudy with Fog 66 19 64 18 94 94 Calm 30.23 1024 0 0 0.00 0.00
8:55 am 08:55 Partly Cloudy with Fog 70 21 68 20 94 94 Calm 30.25 1024 0 0 0.00 0.00
9:55 am 09:55 Cloudy with Mist and Fog 70 21 68 20 94 94 Calm 30.26 1025 1 2 0.00 0.00
10:50 am 10:50 Cloudy with Mist and Fog 70 21 70 21 100 100 Calm 30.25 1024 3 5 0.00 0.00
11:11 am 11:11 Mostly Cloudy with Mist and Fog 70 21 70 21 100 100 Calm 30.25 1024 5 8 0.00 0.00
11:50 am 11:50 Mostly Cloudy 72 22 70 21 94 94 Calm 30.23 1024 7 11 0.00 0.00
12:36 pm 12:36 Mostly Cloudy 75 24 66 19 74 74 SW 5 7 30.20 1023 10 16 0.00 0.00
12:53 pm 12:53 Mostly Cloudy 77 25 68 20 74 74 SW 6 9 30.19 1022 10 16 0.00 0.00
1:55 pm 13:55 Mostly Cloudy 81 27 66 19 62 62 SSW 9 15 30.17 1022 10 16 0.00 0.00
2:55 pm 14:55 Partly Cloudy 81 27 66 19 62 62 SSW 9 15 30.15 1021 10 16 0.00 0.00
3:55 pm 15:55 Sunny 79 26 64 18 61 61 S 8 13 30.15 1021 10 16 0.00 0.00
4:51 pm 16:51 Sunny 75 24 66 19 74 74 SSW 8 13 30.15 1021 10 16 0.00 0.00
5:54 pm 17:54 Clear 73 23 66 19 78 78 SSW 7 11 30.16 1021 10 16 0.00 0.00
10:15 pm 22:15 Clear 67 19.6 66 18.8 95 95 SSW 7 11 30.17 1022 7 11 0.00 0.00
10:35 pm 22:35 Clear with Mist and Fog 67 19.3 65 18.5 95 95 S 7 11 30.17 1022 7 11 0.00 0.00
10:55 pm 22:55 Clear with Mist and Fog 66 18.8 64 18 95 95 S 5 7 30.17 1022 4 6 0.00 0.00
11:15 pm 23:15 Mostly Cloudy with Mist and Fog 67 19.3 65 18.6 96 96 S 6 9 30.17 1022 5 8 0.00 0.00
11:35 pm 23:35 Cloudy with Fog 65 18.4 64 17.7 96 96 Calm 30.16 1021 0 0 0.00 0.00
11:55 pm 23:55 Cloudy with Fog 64 17.7 63 17 96 96 S 3 6 30.16 1021 0 0 0.00 0.00

Powered by AerisWeather